Location: Centerville
(32.8776°N, 96.6203°W)
Time: 03:46:17
(UTC+00:00)

Cosmos 2360 Rocket - Pass Details

Date: 17 June 2021
Orbit: 835 x 843 km, 71.0° (Epoch: 29 July)

Event Time Altitude Azimuth Distance (km) Brightness Sun altitude
Exits shadow 02:44:48 13° 158° (SSE) 2,240 3.9 -12.7°
Maximum altitude 02:48:58 30° 103° (ESE) 1,463 3.0 -13.4°
Drops below altitude 10° 02:53:47 10° 44° (NE) 2,455 4.6 -14.1°
Sets 02:56:29 0° 34° (NNE) 3,392 5.4 -14.6°
